Lexington Weather

Lexington, Massachusetts, USA

70°F
8/17/2022 5:55pm 
  • Lexington Conditions: Overcast
  • Temperature: 70.2°F / 21.2°CColder 0.3°F than last hour.
  • Dew Point: 59.2°FIncreased 1.8°Fsince last hour.
  • Relative Humidity: 68%Increased 5.0% since last hour.
  • Wind: Calm, 10-min avg: Calm, gust: 1 mph
  • Barometer: 29.86 inFalling 0.02  inHg/hr Falling Slowly
  • Visibility: 10 miles
  • Rain Today: 0.00 in
  •   

Regional Weather Roundup
for Boston, MA

        
000
ASUS41 KBOX 141810
RWRBOX

REGIONAL WEATHER ROUNDUP
NATIONAL WEATHER SERVICE BOSTON/NORTON MA
200 PM EDT SUN AUG 14 2022

NOTE:  "FAIR" INDICATES FEW OR NO CLOUDS BELOW 12,000 FEET WITH NO 
SIGNIFICANT WEATHER AND/OR OBSTRUCTIONS TO VISIBILITY.

MAZALL-141900-
EASTERN MASSACHUSETTS
  
CITY           SKY/WX    TMP DP  RH WIND       PRES   REMARKS
BOSTON         PTSUNNY   79  52  38 SE10      30.02S                  
6HR MIN TEMP:  68; 6HR MAX TEMP:  79;                                

BEVERLY        PTSUNNY   76  51  41 SE10      30.02R                  
LAWRENCE       CLOUDY    82  49  31 NW6       30.03F                  
BEDFORD        PTSUNNY   81  49  32 NW7       30.01S                  
BLUE HILL      NOT AVBL                                               
NORWOOD        MOSUNNY   82  48  30 S5        30.01F                  
MARSHFIELD     SUNNY     73  57  56 VRB5      30.03S                  
PLYMOUTH       MOSUNNY   79  59  50 NE8       30.03S                  
TAUNTON          N/A    N/A N/A N/A MISG      30.02S                  
NEW BEDFORD    PTSUNNY   81  54  39 VRB5      30.02S                  
$$

MAZALL-141900-
CAPE COD AND THE ISLANDS
  
CITY           SKY/WX    TMP DP  RH WIND       PRES   REMARKS
FALMOUTH       SUNNY     77  50  38 CALM      30.05R                  
HYANNIS        PTSUNNY   77  55  46 S8        30.03R                  
CHATHAM        SUNNY     77  57  50 S6        30.05R                  
NANTUCKET      SUNNY     74  63  68 SW10      30.05S                  
MARTHAS VNYRD  SUNNY     77  52  41 W6        30.04S                  
$$
 
MAZALL-141900-
CENTRAL AND WESTERN MASSACHUSETTS
  
CITY           SKY/WX    TMP DP  RH WIND       PRES   REMARKS
WORCESTER      MOSUNNY   77  45  32 NW9       30.06F                  
6HR MIN TEMP:  64; 6HR MAX TEMP:  78;                                

FITCHBURG      PTSUNNY   82  39  21 VRB7      30.03F                  
ORANGE         SUNNY     79  44  28 SW10      30.05F                  
SPRINGFIELD    MOSUNNY   79  46  30 S7        30.00F                  
WESTFIELD      PTSUNNY   82  49  31 VRB7      30.02F                  
NORTH ADAMS    SUNNY     78  51  38 MISG      30.04F                  
PITTSFIELD     SUNNY     78  46  32 W10       30.05F                  
$$
 
RIZALL-141900-
RHODE ISLAND
  
CITY           SKY/WX    TMP DP  RH WIND       PRES   REMARKS
PROVIDENCE     PTSUNNY   82  48  30 VRB5      30.03F                  
6HR MIN TEMP:  66; 6HR MAX TEMP:  83;                                

NEWPORT        SUNNY     74  57  55 VRB7      30.04S                  
BLOCK ISLAND   SUNNY     76  52  43 W10       30.06S                  
SMITHFIELD     SUNNY     79  47  32 CALM      30.04F                  
WESTERLY       PTSUNNY   79  52  38 SW9       30.04F                  
$$
 
CTZALL-141900-
CONNECTICUT
  
CITY           SKY/WX    TMP DP  RH WIND       PRES   REMARKS
BRADLEY INTL   MOSUNNY   82  53  36 VRB6      30.03F                  
6HR MIN TEMP:  62; 6HR MAX TEMP:  82;                                

HARTFORD       MOSUNNY   82  52  35 SE7       30.02F                  
BRIDGEPORT     SUNNY     78  48  34 SW8       30.04F                  
DANBURY        PTSUNNY   81  49  32 CALM      30.05F                  
GROTON         MOSUNNY   77  59  53 S9        30.04S                  
NEW HAVEN      MOSUNNY   79  56  45 S9        30.05F                  
CHESTER        PTSUNNY   77  52  41 S8        30.06S                  
MERIDEN        PTSUNNY   79  49  34 S5        30.03F                  
WILLIMANTIC    SUNNY     79  47  32 SW10      30.04F                  
OXFORD         PTSUNNY   78  51  38 VRB3      30.06F                  
$$

MEZ002-015-021-024-NHZ003-005-008-011-012-014-VTZ005-008-141900-
NORTHERN NEW ENGLAND
  
CITY           SKY/WX    TMP DP  RH WIND       PRES   REMARKS
PORTLAND ME    MOSUNNY   79  53  40 SE10      30.01S                  
6HR MIN TEMP:  67; 6HR MAX TEMP:  79;                                

BANGOR ME      PTSUNNY   79  54  41 NW8       29.97F                  
CONCORD NH     SUNNY     82  46  28 MISG      30.02F                  
MANCHESTER NH  PTSUNNY   82  48  30 MISG      30.01S                  
NASHUA NH      PTSUNNY   82  51  34 N9        30.02F                  
PORTSMOUTH NH  MOSUNNY   81  46  29 SW8       30.00F                  
JAFFREY NH     MOSUNNY   77  45  32 SE3       30.06S                  
KEENE NH       SUNNY     77  45  32 NE3         N/A                   
BURLINGTON VT  MOSUNNY   79  45  29 NE3       30.04F                  
MT. WASHINGTON PTSUNNY   50  45  81 N8          N/A                   
$$

NYZ052-076-141900-
EASTERN NEW YORK
  
CITY           SKY/WX    TMP DP  RH WIND       PRES   REMARKS
ALBANY         MOSUNNY   80  51  36 N7        30.04F                  
6HR MIN TEMP:  61; 6HR MAX TEMP:  80;                                

NEW YORK CITY  PTSUNNY   80  50  34 S15       30.04S                  
6HR MIN TEMP:  72; 6HR MAX TEMP:  83;                                

$$
 
ANZALL-141900-
MARINE OBSERVATIONS
  
STATION/POSITION TIME  TEMP    WIND        PRES    VSBY  WAVE
                       AIR SEA DIR/SP/G                  HT/PER
                 (UTC) (F)     (DEG/KT/KT) (MB)    (MI)  (FT/S)
BOSTON BUOY      NOT AVBL
BUZZARDS BAY     NOT AVBL
NANTUCKET SOUND  NOT AVBL
MASS BAY-STELLWA NOT AVBL
ISLE OF SHOALS   NOT AVBL
S OF BLOCK IS    NOT AVBL
$$

......................KEY.........................
  SKY/WX - SKY CONDITION/PRESENT WEATHER
  TMP    - TEMPERATURE IN FAHRENHEIT
  DWPT   - DEWPOINT IN FAHRENHEIT
  RH     - RELATIVE HUMIDITY IN PERCENT
  WIND   - DIRECTION AND SPEED IN MPH
  PRES   - MEAN SEA LEVEL PRESSURE IN INCHES OF HG
  WCI    - WIND CHILL INDEX
  VSB    - VISIBILITY IN MILES
  HX     - HEAT INDEX
  TC     - TEMPERATURE IN CELSIUS
  VRB    - VARIABLE WIND DIRECTION
  N/A    - NOT AVAILABLE
  
      

Other recent Regional Weather Roundups

Wed Aug 17, 5:10pm

Wed Aug 17, 4:10pm

Wed Aug 17, 3:10pm

Wed Aug 17, 2:10pm

Wed Aug 17, 1:10pm

Wed Aug 17, 12:10pm

Wed Aug 17, 11:10am

Wed Aug 17, 10:10am

Wed Aug 17, 9:10am

Wed Aug 17, 8:10am

Wed Aug 17, 7:10am

Wed Aug 17, 6:10am

Wed Aug 17, 5:10am

Wed Aug 17, 4:10am

Wed Aug 17, 3:10am

Wed Aug 17, 2:10am

Wed Aug 17, 1:10am

Wed Aug 17, 12:10am

Tue Aug 16, 11:10pm

Tue Aug 16, 10:10pm

Tue Aug 16, 9:10pm

Tue Aug 16, 8:10pm

Tue Aug 16, 7:10pm

Tue Aug 16, 6:10pm

Tue Aug 16, 5:10pm

Tue Aug 16, 4:10pm

Tue Aug 16, 3:10pm

Tue Aug 16, 2:10pm

Tue Aug 16, 1:10pm

Tue Aug 16, 12:10pm

Tue Aug 16, 11:10am

Tue Aug 16, 10:10am

Tue Aug 16, 9:10am

Tue Aug 16, 8:10am

Tue Aug 16, 7:10am

Tue Aug 16, 6:10am

Tue Aug 16, 5:10am

Tue Aug 16, 4:10am

Tue Aug 16, 3:10am

Tue Aug 16, 2:10am

Tue Aug 16, 1:10am

Tue Aug 16, 12:10am

Mon Aug 15, 11:10pm

Mon Aug 15, 10:10pm

Mon Aug 15, 9:10pm

Mon Aug 15, 8:10pm

Mon Aug 15, 7:10pm

Mon Aug 15, 6:10pm

Mon Aug 15, 5:10pm

Mon Aug 15, 4:10pm

Mon Aug 15, 3:10pm

Mon Aug 15, 2:10pm

Mon Aug 15, 1:10pm

Mon Aug 15, 12:10pm

Mon Aug 15, 11:10am

Mon Aug 15, 10:10am

Mon Aug 15, 9:10am

Mon Aug 15, 8:10am

Mon Aug 15, 7:10am

Mon Aug 15, 6:10am

Mon Aug 15, 5:10am

Mon Aug 15, 4:10am

Mon Aug 15, 3:10am

Mon Aug 15, 2:10am

Mon Aug 15, 1:10am

Mon Aug 15, 12:10am

Sun Aug 14, 11:10pm

Sun Aug 14, 10:10pm

Sun Aug 14, 9:10pm

Sun Aug 14, 8:10pm

Sun Aug 14, 7:10pm

Sun Aug 14, 6:10pm

Sun Aug 14, 5:10pm

Sun Aug 14, 4:10pm

Sun Aug 14, 3:10pm

Sun Aug 14, 1:10pm

Sun Aug 14, 12:10pm

Sun Aug 14, 11:10am

Sun Aug 14, 10:10am

Sun Aug 14, 9:10am

Sun Aug 14, 8:10am

Sun Aug 14, 7:10am

Sun Aug 14, 6:10am

Sun Aug 14, 5:10am

Sun Aug 14, 4:10am

Sun Aug 14, 3:10am

Sun Aug 14, 2:10am

Sun Aug 14, 1:10am

Sun Aug 14, 12:10am

Sat Aug 13, 11:10pm

Sat Aug 13, 10:10pm

Sat Aug 13, 9:10pm

Sat Aug 13, 8:10pm

Sat Aug 13, 7:10pm

Sat Aug 13, 6:10pm

Sat Aug 13, 5:10pm

Sat Aug 13, 4:10pm

Sat Aug 13, 3:10pm

Sat Aug 13, 2:10pm

Sat Aug 13, 1:10pm

Sat Aug 13, 12:10pm

Sat Aug 13, 11:10am

Sat Aug 13, 10:10am

Sat Aug 13, 9:10am

Sat Aug 13, 8:10am

Sat Aug 13, 7:10am

Sat Aug 13, 6:10am

Sat Aug 13, 5:10am

Sat Aug 13, 4:10am

Sat Aug 13, 3:10am

Sat Aug 13, 2:10am

Sat Aug 13, 1:10am

Sat Aug 13, 12:10am

Fri Aug 12, 11:10pm

Fri Aug 12, 10:10pm

Fri Aug 12, 9:10pm

Fri Aug 12, 8:10pm

Fri Aug 12, 7:10pm

Fri Aug 12, 6:10pm

Fri Aug 12, 5:10pm

Fri Aug 12, 4:10pm

Fri Aug 12, 3:10pm

Fri Aug 12, 2:10pm

Fri Aug 12, 1:10pm

Fri Aug 12, 12:10pm

Fri Aug 12, 11:10am

Fri Aug 12, 10:10am

Fri Aug 12, 9:10am

Fri Aug 12, 8:10am

Fri Aug 12, 7:10am

Fri Aug 12, 6:10am

Fri Aug 12, 5:10am

Fri Aug 12, 4:10am

Fri Aug 12, 3:10am

Fri Aug 12, 2:10am

Fri Aug 12, 1:10am

Fri Aug 12, 12:10am

Thu Aug 11, 11:10pm

Thu Aug 11, 10:10pm

Thu Aug 11, 9:10pm

Thu Aug 11, 8:10pm

Thu Aug 11, 7:10pm

Thu Aug 11, 6:10pm

Thu Aug 11, 5:10pm

Thu Aug 11, 4:10pm

Thu Aug 11, 3:10pm

Thu Aug 11, 2:10pm

Thu Aug 11, 1:10pm

Thu Aug 11, 12:10pm

Thu Aug 11, 11:10am

Thu Aug 11, 10:10am

Thu Aug 11, 9:10am

Thu Aug 11, 8:10am

Thu Aug 11, 7:10am

Thu Aug 11, 6:10am

Thu Aug 11, 5:10am

Thu Aug 11, 4:10am

Thu Aug 11, 3:10am

Thu Aug 11, 2:10am

Thu Aug 11, 1:10am

Thu Aug 11, 12:10am

Wed Aug 10, 11:10pm

Wed Aug 10, 10:10pm

Wed Aug 10, 9:10pm

Wed Aug 10, 8:10pm

Wed Aug 10, 7:10pm

Wed Aug 10, 6:10pm

Meta data:

ID: e0862803-2568-471f-811b-088de933b7f2
Link: https://api.weather.gov/products/e0862803-2568-471f-811b-088de933b7f2